Location: Asheville, NC
(35.6000°N, 82.5500°W)
Time: 13:42:12
(UTC-05:00)

Tiangong 2 - Pass Details

Date: 12 February 2018
Orbit: 384 x 388 km, 42.8° (Epoch: 22 February)

Event Time Altitude Azimuth Distance (km) Brightness Sun altitude
Rises 19:43:48 0° 270° (W) 2,254 6.6 -19.7°
Reaches altitude 10° 19:46:02 10° 282° (WNW) 1,401 5.0 -20.2°
Enters shadow 19:48:48 29° 343° (NNW) 727 2.5 -20.8°
